Regional Weather Roundup
Issued by NWS

Home | Current Version | Previous Version | Graphics & Text | Print | Product List | Glossary On
Versions: 1 2 3 4 5 6 7 8 9 10 11 12 13 14 15 16 17 18 19 20 21 22 23 24 25 26 27 28 29 30 31 32 33 34 35 36 37 38 39 40 41 42 43 44 45 46 47 48 49 50
000
ASUS43 KFSD 290502
RWRSD

WEATHER ROUNDUP FOR SOUTH DAKOTA
NATIONAL WEATHER SERVICE SIOUX FALLS SD
1200 AM CDT SAT AUG 29 2015

NOTE: "FAIR" INDICATES FEW OR NO CLOUDS BELOW 12,000 FEET WITH NO
SIGNIFICANT WEATHER AND/OR OBSTRUCTIONS TO VISIBILITY.


SDZ001>005-009-010-012>017-290600-
NORTHWEST AND NORTH CENTRAL SOUTH DAKOTA

CITY           SKY/WX    TMP DP  RH WIND       PRES   REMARKS
BUFFALO          N/A     66  48  52 W6        29.98S
FAITH            N/A     69  58  67 S6        30.01S
MOBRIDGE       CLEAR     69  68  96 SE8       29.94R
$$

SDZ012>016-024>037-041>051-057-063-072>074-290600-
SOUTHWEST AND SOUTH CENTRAL SOUTH DAKOTA

CITY           SKY/WX    TMP DP  RH WIND       PRES   REMARKS
RAPID CTY ARPT CLEAR     61  57  87 CALM      30.08R
PIERRE         CLEAR     68  65  90 SE8       29.99R
CUSTER         CLEAR     59  49  69 NW6       30.25S
ELLSWORTH AFB  CLEAR     71  58  63 SW3       30.07S
PHILIP         CLEAR     71  62  73 CALM      30.01S
PINE RIDGE     CLEAR     60  52  74 CALM      30.11R
WINNER         FAIR      66  61  84 S7        30.04R
$$

SDZ004>011-016>023-039-040-290600-
NORTHEAST SOUTH DAKOTA

CITY           SKY/WX    TMP DP  RH WIND       PRES   REMARKS
ABERDEEN       CLEAR     67  63  87 S10       29.97S
WATERTOWN      CLEAR     62  60  93 S8        30.02R
BROOKINGS      CLEAR     59  55  88 CALM      30.05S
$$

SDZ017-020-022-023-036>040-048>070-290600-
SOUTHEAST SOUTH DAKOTA

CITY           SKY/WX    TMP DP  RH WIND       PRES   REMARKS
SIOUX FALLS    PTCLDY    58  56  93 CALM      30.03S
HURON          CLEAR     66  63  90 S7        30.01R
CHAMBERLAIN    CLEAR     64  63  97 E3        30.03S
MITCHELL       CLEAR     64  62  93 S7        30.03S
YANKTON        CLEAR     57  55  94 NW5       30.03R
$$

ABBREVIATIONS USED IN REMARKS
   TC - TEMPERATURE IN CELSIUS
  WCI - WIND CHILL INDEX
   HX - HEAT INDEX
  VSB - VISIBILITY




USA.gov is the U.S. government's official web portal to all federal, state and local government web resources and services.